QPF
0.00 0.00 0.00 0.00 0.00 0.00 0.00 0.00 0.00 0.00 0.01 0.08 0.08 0.01 0.00 0.00 0.00 0.00 0.00 0.00 0.00 0.00 0.00 0.00 0.00 0.00 0.00 0.00 0.00 0.00 0.00 0.00 0.00 0.00 0.00 0.00 0.00 0.00 0.00 0.00 0.00 0.00 0.00 0.00 0.00
0.01 0.01 0.00 0.00 0.01 0.01 0.00 0.00 0.00 0.00 0.00 0.03 0.08 0.06 0.01 0.00 0.00 0.00 0.00 0.00 0.00 0.00 0.00 0.00 0.00 0.00 0.00 0.00 0.00 0.00 0.00 0.00 0.00 0.00 0.00 0.00 0.00 0.00 0.00 0.00 0.00 0.00 0.00 0.00 0.00
0.02 0.02 0.02 0.03 0.03 0.01 0.01 0.00 0.00 0.00 0.00 0.00 0.09 0.09 0.02 0.00 0.00 0.00 0.00 0.00 0.00 0.00 0.00 0.00 0.00 0.00 0.00 0.00 0.00 0.00 0.00 0.00 0.00 0.00 0.00 0.00 0.00 0.00 0.00 0.00 0.00 0.00 0.00 0.00 0.00
0.02 0.02 0.03 0.02 0.02 0.01 0.01 0.01 0.00 0.00 0.00 0.00 0.06 0.31 0.10 0.00 0.00 0.00 0.00 0.00 0.00 0.00 0.00 0.00 0.00 0.00 0.00 0.00 0.00 0.00 0.00 0.00 0.00 0.00 0.00 0.00 0.00 0.00 0.00 0.00 0.00 0.00 0.00 0.00 0.00
0.02 0.02 0.02 0.02 0.03 0.03 0.01 0.01 0.00 0.00 0.00 0.00 0.01 0.22 0.16 0.00 0.00 0.00 0.00 0.00 0.00 0.03 0.00 0.00 0.00 0.00 0.00 0.00 0.00 0.00 0.00 0.00 0.00 0.00 0.00 0.00 0.00 0.00 0.00 0.00 0.00 0.00 0.00 0.00 0.00
0.01 0.02 0.02 0.06 0.05 0.04 0.01 0.01 0.00 0.00 0.00 0.00 0.00 0.26 0.09 0.00 0.00 0.00 0.00 0.02 0.01 0.02 0.00 0.00 0.00 0.00 0.00 0.00 0.00 0.00 0.00 0.00 0.00 0.00 0.00 0.00 0.00 0.00 0.00 0.00 0.00 0.00 0.00 0.00 0.00
0.02 0.01 0.01 0.04 0.04 0.02 0.01 0.02 0.01 0.00 0.00 0.00 0.01 0.16 0.12 0.02 0.00 0.00 0.01 0.06 0.08 0.05 0.00 0.00 0.00 0.00 0.00 0.00 0.00 0.00 0.00 0.00 0.00 0.00 0.00 0.00 0.00 0.00 0.00 0.00 0.00 0.00 0.00 0.00 0.00
0.03 0.01 0.02 0.04 0.03 0.03 0.01 0.01 0.01 0.00 0.00 0.00 0.01 0.20 0.08 0.00 0.00 0.00 0.00 0.01 0.08 0.13 0.07 0.02 0.02 0.00 0.00 0.00 0.00 0.00 0.00 0.00 0.00 0.00 0.00 0.00 0.00 0.00 0.00 0.00 0.00 0.00 0.00 0.00 0.00
0.03 0.01 0.02 0.02 0.04 0.01 0.01 0.00 0.00 0.01 0.00 0.00 0.01 0.14 0.04 0.00 0.00 0.00 0.00 0.00 0.01 0.03 0.06 0.09 0.07 0.02 0.00 0.00 0.00 0.00 0.00 0.00 0.00 0.00 0.00 0.00 0.00 0.00 0.00 0.00 0.00 0.00 0.00 0.00 0.00
0.02 0.01 0.01 0.01 0.01 0.03 0.02 0.00 0.00 0.00 0.00 0.01 0.04 0.18 0.03 0.00 0.00 0.00 0.00 0.00 0.00 0.03 0.06 0.08 0.12 0.03 0.01 0.00 0.00 0.00 0.00 0.00 0.00 0.00 0.00 0.00 0.00 0.00 0.00 0.00 0.00 0.00 0.00 0.00 0.00
0.01 0.00 0.01 0.00 0.01 0.02 0.02 0.00 0.00 0.01 0.00 0.00 0.03 0.07 0.01 0.00 0.00 0.00 0.00 0.00 0.02 0.08 0.02 0.04 0.12 0.12 0.03 0.00 0.00 0.00 0.00 0.00 0.00 0.00 0.00 0.00 0.00 0.00 0.00 0.00 0.00 0.00 0.00 0.00 0.00
0.00 0.00 0.00 0.01 0.03 0.04 0.02 0.00 0.00 0.00 0.00 0.00 0.03 0.04 0.01 0.00 0.00 0.00 0.00 0.00 0.01 0.04 0.02 0.02 0.02 0.04 0.06 0.03 0.01 0.00 0.00 0.00 0.00 0.00 0.00 0.00 0.00 0.00 0.00 0.00 0.00 0.00 0.00 0.00 0.00
0.00 0.00 0.00 0.02 0.02 0.01 0.00 0.00 0.00 0.00 0.00 0.00 0.06 0.13 0.03 0.00 0.00 0.00 0.00 0.00 0.00 0.03 0.01 0.00 0.01 0.01 0.02 0.01 0.02 0.00 0.00 0.00 0.00 0.00 0.00 0.00 0.00 0.00 0.00 0.00 0.00 0.00 0.00 0.00 0.00
0.00 0.00 0.00 0.01 0.02 0.03 0.04 0.01 0.00 0.00 0.00 0.02 0.12 0.18 0.03 0.00 0.00 0.00 0.00 0.00 0.00 0.01 0.01 0.00 0.00 0.01 0.00 0.00 0.00 0.00 0.00 0.00 0.00 0.00 0.00 0.00 0.00 0.00 0.00 0.00 0.00 0.00 0.00 0.00 0.00
0.02 0.03 0.01 0.06 0.07 0.07 0.09 0.02 0.00 0.00 0.00 0.01 0.13 0.18 0.03 0.00 0.00 0.02 0.02 0.00 0.00 0.00 0.00 0.00 0.00 0.00 0.00 0.00 0.00 0.00 0.00 0.00 0.00 0.00 0.00 0.00 0.00 0.00 0.00 0.00 0.00 0.00 0.00 0.00 0.00
0.07 0.07 0.07 0.11 0.11 0.02 0.01 0.02 0.00 0.01 0.01 0.05 0.18 0.23 0.04 0.01 0.00 0.01 0.01 0.00 0.00 0.00 0.00 0.00 0.00 0.00 0.00 0.00 0.00 0.00 0.00 0.00 0.00 0.00 0.00 0.00 0.00 0.00 0.00 0.00 0.00 0.00 0.00 0.00 0.00
0.04 0.05 0.17 0.05 0.20 0.03 0.01 0.02 0.00 0.01 0.07 0.11 0.13 0.04 0.01 0.01 0.01 0.01 0.00 0.00 0.00 0.01 0.01 0.00 0.00 0.00 0.00 0.00 0.00 0.00 0.00 0.00 0.00 0.00 0.00 0.00 0.00 0.00 0.00 0.00 0.00 0.00 0.00 0.00 0.00
0.01 0.01 0.01 0.01 0.00 0.00 0.00 0.01 0.04 0.09 0.09 0.07 0.05 0.00 0.00 0.01 0.01 0.01 0.00 0.00 0.00 0.00 0.00 0.00 0.00 0.00 0.00 0.00 0.00 0.00 0.00 0.00 0.00 0.00 0.00 0.00 0.00 0.00 0.00 0.00 0.00 0.00 0.00 0.00 0.00
0.00 0.00 0.00 0.00 0.00 0.00 0.00 0.05 0.14 0.20 0.25 0.06 0.03 0.02 0.04 0.00 0.01 0.00 0.00 0.00 0.00 0.00 0.00 0.00 0.00 0.00 0.00 0.00 0.00 0.00 0.00 0.00 0.00 0.00 0.00 0.00 0.00 0.00 0.00 0.00 0.00 0.00 0.00 0.00 0.00
0.00 0.00 0.00 0.00 0.00 0.00 0.04 0.13 0.25 0.23 0.07 0.01 0.05 0.03 0.01 0.00 0.00 0.00 0.00 0.00 0.00 0.00 0.00 0.00 0.00 0.00 0.00 0.00 0.00 0.00 0.00 0.00 0.00 0.00 0.00 0.00 0.00 0.00 0.00 0.00 0.00 0.00 0.00 0.00 0.00
0.00 0.00 0.00 0.00 0.00 0.00 0.01 0.10 0.13 0.09 0.02 0.00 0.00 0.00 0.00 0.00 0.00 0.00 0.00 0.00 0.00 0.00 0.00 0.00 0.00 0.00 0.00 0.00 0.00 0.00 0.00 0.00 0.00 0.00 0.00 0.00 0.00 0.00 0.00 0.00 0.00 0.00 0.00 0.00 0.00
0.00 0.00 0.00 0.00 0.00 0.00 0.02 0.08 0.10 0.02 0.00 0.00 0.00 0.00 0.00 0.00 0.00 0.00 0.00 0.00 0.00 0.00 0.00 0.00 0.00 0.00 0.00 0.00 0.00 0.00 0.00 0.00 0.00 0.00 0.00 0.00 0.00 0.00 0.00 0.00 0.00 0.00 0.00 0.00 0.00
0.00 0.00 0.00 0.00 0.00 0.01 0.01 0.01 0.00 0.00 0.00 0.00 0.00 0.00 0.00 0.00 0.00 0.00 0.00 0.00 0.00 0.00 0.00 0.00 0.00 0.00 0.00 0.00 0.00 0.00 0.00 0.00 0.00 0.00 0.00 0.00 0.00 0.00 0.00 0.00 0.00 0.00 0.00 0.00 0.00
0.00 0.00 0.00 0.00 0.00 0.03 0.05 0.02 0.00 0.00 0.00 0.00 0.00 0.00 0.00 0.00 0.00 0.00 0.00 0.00 0.00 0.00 0.00 0.00 0.00 0.00 0.00 0.00 0.00 0.00 0.00 0.00 0.00 0.00 0.00 0.00 0.00 0.00 0.00 0.00 0.00 0.00 0.00 0.00 0.00
0.00 0.00 0.00 0.00 0.00 0.00 0.00 0.00 0.00 0.00 0.00 0.00 0.00 0.00 0.00 0.00 0.00 0.00 0.00 0.00 0.00 0.00 0.00 0.00 0.00 0.00 0.00 0.00 0.00 0.00 0.00 0.00 0.00 0.00 0.00 0.00 0.00 0.00 0.00 0.00 0.00 0.01 0.00 0.00 0.00
0.00 0.00 0.00 0.00 0.00 0.00 0.00 0.00 0.00 0.00 0.00 0.00 0.00 0.00 0.00 0.00 0.00 0.00 0.00 0.00 0.00 0.00 0.00 0.00 0.00 0.00 0.00 0.00 0.00 0.00 0.00 0.00 0.00 0.00 0.00 0.00 0.00 0.00 0.00 0.00 0.00 0.00 0.00 0.00 0.00
0.00 0.00 0.00 0.00 0.00 0.00 0.00 0.00 0.00 0.00 0.00 0.00 0.00 0.00 0.00 0.00 0.00 0.00 0.00 0.00 0.00 0.00 0.00 0.00 0.00 0.00 0.00 0.00 0.00 0.00 0.00 0.00 0.00 0.00 0.00 0.00 0.00 0.00 0.00 0.00 0.00 0.00 0.00 0.00 0.00
MSLP
1017.60 1017.15 1016.76 1016.68 1016.28 1016.11 1015.83 1015.51 1015.09 1014.77 1014.35 1014.10 1013.54 1013.36 1013.46 1013.55 1013.71 1013.83 1013.26 1012.33 1012.23 1011.95 1011.69 1012.30 1012.98 1013.38 1013.81 1014.10 1014.10 1014.57 1015.37 1015.46 1014.79 1014.22 1012.99 1012.18 1011.78 1011.28 1010.76 1010.56 1009.94 1009.67 1009.59 1009.22 1009.28
1017.28 1016.95 1016.52 1016.07 1015.91 1015.56 1015.49 1015.32 1015.01 1014.53 1014.20 1013.87 1013.46 1013.22 1013.08 1013.31 1013.67 1013.07 1011.80 1011.71 1011.72 1011.75 1011.97 1012.18 1012.78 1013.37 1014.05 1014.13 1014.20 1014.38 1014.77 1014.48 1013.89 1013.17 1012.69 1012.25 1011.95 1011.84 1011.51 1011.01 1010.44 1009.96 1009.61 1009.67 1009.81
1016.93 1016.60 1016.21 1015.86 1015.66 1015.38 1015.07 1014.89 1014.73 1014.40 1014.06 1013.76 1013.50 1013.09 1012.71 1013.37 1013.46 1011.10 1009.98 1010.74 1010.94 1011.30 1011.71 1012.15 1012.51 1013.22 1013.96 1014.07 1014.14 1014.08 1014.01 1013.67 1013.26 1012.65 1012.49 1012.37 1012.18 1011.95 1011.91 1011.63 1011.17 1011.13 1010.87 1010.48 1010.90
1016.54 1016.22 1015.92 1015.60 1015.12 1015.00 1014.76 1014.58 1014.34 1013.96 1013.73 1013.50 1013.22 1012.71 1012.19 1012.98 1012.05 1009.40 1009.11 1009.45 1010.17 1010.84 1011.51 1012.21 1012.66 1013.21 1013.73 1013.86 1013.75 1014.00 1013.54 1013.22 1012.97 1012.62 1012.67 1012.55 1012.35 1012.16 1012.02 1011.75 1011.37 1011.37 1011.30 1011.05 1010.98
1016.27 1015.90 1015.49 1015.13 1014.89 1014.65 1014.46 1014.27 1014.04 1013.56 1013.29 1013.13 1013.00 1012.67 1012.59 1012.30 1010.83 1009.21 1009.16 1009.05 1009.99 1010.71 1011.22 1012.04 1012.58 1012.99 1013.31 1013.51 1013.63 1013.64 1013.47 1013.13 1012.78 1012.73 1012.81 1012.65 1012.56 1012.37 1011.96 1011.41 1011.65 1011.38 1011.34 1011.25 1011.23
1015.92 1015.60 1015.22 1014.72 1014.50 1014.25 1014.01 1013.74 1013.56 1013.17 1012.95 1012.83 1012.69 1012.42 1012.05 1011.30 1009.52 1009.16 1009.45 1009.47 1009.80 1010.46 1011.16 1011.74 1012.16 1012.52 1013.01 1013.13 1013.34 1013.19 1013.26 1013.16 1013.00 1012.80 1012.76 1012.67 1012.50 1012.50 1011.88 1011.57 1011.47 1011.74 1011.62 1011.48 1011.51
1015.64 1015.25 1014.82 1014.46 1014.07 1013.88 1013.64 1013.32 1013.18 1012.92 1012.70 1012.51 1012.40 1012.45 1011.48 1010.17 1009.34 1009.24 1009.27 1009.15 1009.65 1010.24 1010.92 1011.51 1011.96 1012.39 1012.75 1013.05 1012.94 1013.15 1013.45 1013.32 1012.96 1012.82 1012.83 1012.73 1012.06 1011.95 1011.98 1011.71 1011.67 1011.34 1011.88 1011.77 1011.57
1015.37 1014.93 1014.54 1014.30 1014.01 1013.68 1013.29 1012.90 1012.76 1012.60 1012.47 1012.18 1012.07 1011.96 1010.47 1009.56 1009.54 1009.67 1009.31 1009.54 1010.03 1010.48 1010.81 1011.33 1011.73 1012.21 1012.80 1012.73 1012.96 1013.39 1013.77 1013.81 1013.03 1012.88 1012.81 1013.07 1011.28 1011.86 1011.75 1011.63 1011.84 1011.57 1011.06 1011.17 1011.11
1015.05 1014.70 1014.28 1014.00 1013.72 1013.30 1013.12 1012.77 1012.34 1012.07 1012.05 1011.85 1011.93 1011.62 1009.93 1009.09 1009.57 1009.43 1009.52 1009.63 1010.22 1010.83 1011.14 1011.22 1011.89 1012.46 1012.69 1013.06 1013.60 1013.78 1014.19 1014.04 1013.70 1012.99 1013.16 1013.37 1012.28 1011.60 1011.26 1011.51 1011.74 1011.42 1011.00 1010.82 1010.42
1014.71 1014.24 1013.89 1013.59 1013.28 1013.09 1012.89 1012.49 1011.66 1011.53 1011.63 1011.82 1011.75 1011.27 1010.05 1009.17 1009.06 1009.23 1009.60 1009.73 1010.25 1010.93 1011.44 1011.60 1012.13 1012.52 1012.92 1013.29 1013.51 1014.18 1014.32 1014.23 1013.95 1013.56 1013.47 1013.54 1013.19 1012.06 1011.76 1011.82 1011.83 1011.61 1010.96 1010.40 1010.09
1014.52 1014.05 1013.69 1013.27 1013.05 1012.89 1012.90 1012.85 1012.25 1012.15 1011.84 1011.17 1010.55 1009.80 1008.91 1008.78 1008.90 1009.23 1009.48 1009.92 1010.41 1011.28 1011.45 1011.62 1012.15 1012.06 1012.57 1012.95 1013.38 1013.81 1014.28 1014.30 1014.09 1013.79 1013.81 1013.63 1013.39 1012.45 1011.77 1011.78 1011.53 1011.17 1010.62 1009.98 1009.42
1014.23 1013.71 1013.35 1012.97 1012.73 1012.61 1012.84 1012.94 1012.57 1012.44 1011.88 1010.79 1010.66 1009.69 1009.26 1008.84 1009.02 1009.24 1009.53 1010.15 1010.63 1011.17 1011.66 1012.19 1011.85 1012.19 1012.62 1013.19 1013.57 1014.04 1014.39 1014.58 1014.33 1014.16 1014.34 1014.00 1013.35 1012.31 1011.31 1010.84 1010.48 1010.10 1009.68 1009.29 1008.87
1013.60 1013.21 1012.91 1012.57 1012.26 1012.27 1012.55 1012.52 1012.13 1012.30 1012.01 1010.69 1010.55 1009.80 1009.37 1008.81 1008.94 1009.36 1009.71 1009.99 1010.63 1011.30 1011.58 1011.76 1011.98 1012.33 1012.95 1013.29 1013.77 1014.23 1014.56 1014.91 1015.25 1015.02 1015.13 1014.76 1013.11 1011.96 1010.65 1010.14 1009.83 1009.38 1009.05 1008.85 1008.46
1013.09 1012.68 1012.34 1012.21 1012.25 1012.08 1012.07 1012.07 1011.98 1012.24 1011.99 1011.25 1010.76 1009.37 1009.21 1008.42 1009.31 1009.48 1009.65 1009.99 1010.60 1011.26 1011.48 1011.92 1012.06 1012.31 1012.64 1013.20 1013.67 1014.22 1014.48 1015.23 1015.81 1016.19 1016.82 1016.21 1015.12 1013.09 1011.35 1010.45 1009.80 1009.13 1009.07 1008.79 1008.52
1012.07 1011.81 1011.80 1011.73 1011.84 1011.79 1012.04 1011.90 1012.15 1012.37 1011.90 1010.96 1010.43 1009.48 1008.75 1008.71 1009.07 1009.88 1009.82 1009.81 1010.49 1011.10 1011.74 1012.49 1012.19 1012.45 1012.81 1013.11 1013.44 1014.50 1015.01 1015.83 1016.72 1017.51 1017.75 1017.31 1017.12 1013.37 1012.00 1010.66 1009.71 1009.26 1009.31 1009.11 1008.70
1010.69 1010.60 1011.15 1011.44 1011.64 1011.61 1011.85 1012.08 1012.48 1012.81 1011.59 1010.50 1009.92 1009.31 1009.37 1009.17 1009.38 1010.19 1010.16 1009.80 1010.39 1011.50 1012.34 1012.81 1012.50 1012.63 1012.96 1013.51 1013.83 1014.73 1015.87 1017.05 1018.07 1018.71 1018.89 1017.85 1017.31 1014.17 1012.20 1011.12 1010.44 1009.79 1009.56 1009.30 1008.87
1011.28 1010.55 1010.85 1011.12 1011.87 1011.73 1012.12 1012.49 1012.83 1012.38 1011.59 1010.41 1009.34 1009.11 1009.58 1009.70 1010.02 1010.34 1010.28 1010.74 1011.21 1012.42 1013.04 1013.18 1013.42 1013.26 1013.36 1014.10 1014.79 1015.47 1016.80 1018.57 1019.60 1020.10 1019.31 1018.36 1017.68 1013.82 1011.76 1011.20 1011.04 1010.70 1010.34 1010.00 1009.63
1012.09 1011.57 1012.00 1011.90 1011.75 1011.82 1012.34 1012.75 1012.54 1011.58 1010.72 1009.65 1009.14 1009.79 1009.93 1010.14 1010.63 1010.92 1011.31 1011.78 1012.16 1012.44 1013.47 1013.95 1014.41 1013.79 1013.89 1014.37 1015.14 1016.17 1017.24 1018.82 1019.75 1020.79 1020.05 1018.59 1016.84 1013.15 1011.68 1011.21 1011.04 1010.91 1010.85 1010.46 1010.19
1012.79 1012.56 1012.69 1012.59 1012.30 1012.38 1012.60 1012.84 1012.68 1011.82 1010.88 1009.66 1009.79 1010.21 1010.74 1010.99 1011.00 1011.63 1012.00 1012.36 1012.48 1012.59 1013.30 1014.17 1014.32 1014.14 1014.14 1014.39 1015.04 1016.57 1017.82 1018.63 1019.69 1021.05 1020.60 1018.13 1015.87 1012.94 1011.51 1011.15 1010.89 1010.71 1010.63 1010.59 1010.38
1013.45 1013.47 1013.15 1012.62 1012.42 1012.80 1013.17 1013.02 1012.62 1012.09 1010.88 1009.92 1010.17 1010.77 1011.14 1011.53 1011.67 1012.05 1012.34 1012.49 1012.59 1012.77 1012.89 1013.84 1014.54 1014.62 1014.82 1014.84 1015.51 1016.03 1017.41 1019.03 1020.17 1020.97 1020.48 1018.33 1016.37 1013.58 1012.08 1011.53 1011.27 1011.14 1010.92 1010.59 1010.07
1014.03 1013.74 1012.90 1012.86 1012.70 1013.01 1013.21 1012.53 1011.86 1010.71 1010.16 1009.99 1010.31 1010.56 1011.10 1011.47 1011.82 1012.26 1012.57 1012.50 1012.50 1012.95 1013.09 1013.72 1014.64 1015.71 1015.46 1015.59 1016.07 1016.92 1017.59 1018.85 1019.69 1020.33 1020.43 1019.43 1015.40 1012.73 1011.88 1011.34 1011.21 1010.92 1010.34 1010.05 1009.71
1014.38 1014.18 1012.77 1012.65 1013.25 1013.18 1012.82 1012.59 1012.14 1011.23 1010.35 1010.02 1010.00 1010.37 1011.02 1011.48 1011.97 1012.32 1012.44 1012.44 1012.40 1012.80 1013.59 1014.10 1015.30 1016.39 1016.25 1016.27 1016.32 1016.57 1017.33 1018.40 1019.53 1020.55 1020.72 1019.74 1015.54 1012.39 1011.77 1011.38 1010.84 1010.11 1009.63 1009.27 1009.00
1014.97 1014.60 1013.01 1012.82 1013.33 1013.23 1012.97 1012.30 1011.79 1010.99 1010.46 1010.09 1010.21 1010.31 1010.71 1011.43 1012.12 1012.35 1012.39 1012.22 1012.46 1012.85 1013.41 1014.19 1015.62 1016.98 1017.30 1017.12 1016.83 1016.91 1017.39 1018.11 1019.19 1019.57 1019.90 1019.18 1014.86 1012.23 1011.49 1010.78 1010.15 1009.81 1009.34 1009.26 1009.11
1015.18 1015.19 1014.15 1013.38 1013.27 1013.21 1012.80 1012.05 1011.45 1010.69 1010.37 1009.89 1010.12 1010.21 1010.77 1011.45 1011.78 1012.46 1012.62 1012.61 1012.53 1012.87 1013.54 1014.06 1015.83 1016.76 1017.24 1017.09 1017.14 1017.28 1017.36 1017.86 1018.43 1019.36 1018.70 1016.72 1014.42 1012.28 1011.68 1010.84 1009.97 1009.71 1009.89 1009.79 1009.46
1015.49 1015.75 1015.31 1014.41 1013.28 1012.99 1012.49 1011.63 1011.17 1010.85 1010.20 1009.98 1010.37 1010.40 1010.78 1011.68 1012.13 1012.52 1012.71 1012.88 1013.04 1013.32 1014.03 1014.78 1016.35 1017.22 1017.30 1017.13 1017.07 1016.89 1016.90 1017.17 1017.53 1017.44 1017.18 1015.11 1014.37 1012.35 1011.45 1010.60 1010.30 1010.19 1010.39 1010.23 1009.92
1015.69 1015.67 1015.22 1014.59 1013.74 1013.16 1012.35 1011.80 1011.24 1011.01 1010.77 1010.73 1010.82 1011.05 1011.04 1011.73 1012.02 1012.35 1012.59 1012.97 1013.19 1013.87 1014.53 1015.44 1016.81 1017.41 1017.38 1016.74 1016.54 1016.46 1016.06 1016.12 1016.26 1016.30 1015.85 1014.78 1013.46 1011.43 1010.67 1010.44 1010.27 1010.80 1011.00 1010.83 1010.66
1016.06 1015.75 1015.57 1014.74 1014.07 1013.22 1012.62 1011.97 1011.59 1011.25 1011.43 1011.32 1011.46 1011.49 1011.78 1012.11 1012.00 1012.02 1012.34 1012.79 1013.07 1013.83 1014.92 1015.80 1016.76 1017.62 1017.67 1016.84 1016.21 1015.48 1013.81 1014.13 1014.37 1014.28 1014.04 1013.91 1011.76 1010.77 1010.38 1010.33 1010.60 1011.22 1011.53 1011.46 1011.31
Thickness
5534 5533 5531 5527 5526 5525 5524 5527 5530 5533 5536 5541 5548 5552 5555 5559 5565 5573 5589 5598 5605 5612 5622 5622 5622 5623 5626 5628 5635 5635 5619 5622 5643 5649 5665 5677 5676 5687 5697 5700 5712 5717 5720 5731 5735
5525 5521 5518 5515 5512 5510 5510 5509 5514 5520 5524 5530 5537 5543 5548 5550 5554 5570 5585 5592 5599 5606 5610 5613 5613 5615 5611 5619 5624 5623 5614 5630 5648 5659 5665 5668 5672 5673 5679 5683 5699 5709 5720 5723 5724
5514 5508 5502 5495 5486 5483 5487 5490 5494 5503 5510 5516 5524 5532 5539 5538 5544 5575 5589 5591 5597 5602 5604 5607 5610 5611 5608 5612 5618 5621 5620 5637 5648 5661 5665 5661 5663 5673 5670 5672 5688 5692 5699 5710 5709
5498 5490 5479 5465 5459 5455 5457 5463 5473 5486 5494 5503 5512 5523 5532 5532 5544 5575 5586 5591 5593 5595 5598 5598 5602 5602 5603 5606 5617 5615 5626 5635 5645 5654 5655 5656 5662 5664 5669 5675 5688 5691 5695 5701 5705
5480 5469 5454 5438 5427 5425 5428 5436 5449 5466 5479 5490 5500 5511 5519 5527 5546 5566 5573 5583 5585 5588 5592 5592 5594 5599 5600 5605 5611 5613 5621 5632 5642 5644 5646 5653 5653 5659 5667 5679 5679 5689 5690 5692 5694
5462 5445 5430 5416 5410 5408 5410 5416 5428 5445 5462 5476 5488 5500 5512 5524 5547 5558 5562 5573 5579 5582 5584 5589 5592 5596 5595 5602 5603 5613 5616 5623 5631 5637 5641 5645 5650 5654 5667 5671 5672 5677 5681 5682 5686
5444 5429 5416 5405 5401 5399 5399 5404 5412 5427 5446 5461 5476 5485 5504 5526 5542 5550 5558 5568 5574 5578 5579 5583 5587 5589 5594 5597 5605 5609 5608 5614 5624 5633 5633 5640 5646 5648 5661 5665 5663 5673 5670 5673 5678
5429 5417 5409 5398 5395 5395 5396 5398 5402 5413 5432 5451 5468 5480 5507 5525 5533 5540 5553 5559 5564 5570 5574 5578 5583 5584 5587 5595 5597 5595 5597 5595 5619 5625 5630 5630 5644 5651 5655 5659 5656 5660 5672 5674 5677
5420 5412 5408 5400 5396 5397 5396 5395 5400 5409 5424 5443 5461 5474 5503 5523 5530 5537 5545 5551 5555 5558 5565 5575 5573 5574 5580 5577 5576 5584 5576 5589 5600 5617 5619 5618 5627 5652 5655 5654 5652 5657 5667 5670 5677
5414 5410 5407 5403 5401 5398 5397 5398 5403 5408 5420 5438 5456 5473 5499 5519 5528 5533 5538 5546 5551 5553 5555 5561 5561 5561 5567 5570 5570 5572 5578 5584 5591 5606 5609 5609 5611 5639 5645 5645 5645 5648 5656 5664 5671
5407 5404 5403 5403 5401 5399 5396 5394 5396 5399 5414 5439 5465 5488 5507 5515 5525 5528 5536 5540 5545 5543 5549 5557 5555 5564 5571 5572 5576 5575 5577 5583 5591 5600 5601 5605 5606 5625 5637 5635 5637 5644 5652 5659 5669
5402 5401 5400 5401 5400 5399 5395 5392 5394 5397 5413 5440 5460 5485 5498 5513 5517 5524 5533 5533 5538 5542 5543 5548 5556 5563 5567 5568 5569 5573 5573 5576 5584 5593 5595 5596 5604 5622 5635 5641 5645 5650 5656 5662 5667
5400 5399 5398 5399 5399 5397 5393 5394 5397 5398 5412 5449 5461 5483 5496 5513 5518 5521 5530 5533 5536 5537 5544 5550 5556 5561 5559 5561 5561 5565 5565 5568 5572 5578 5582 5583 5604 5618 5634 5638 5642 5647 5654 5659 5665
5398 5398 5398 5397 5395 5394 5394 5393 5396 5400 5390 5444 5457 5487 5497 5516 5512 5522 5531 5531 5533 5532 5541 5547 5554 5556 5560 5559 5562 5559 5570 5567 5564 5566 5562 5573 5572 5599 5617 5623 5632 5639 5642 5645 5650
5403 5398 5399 5397 5395 5393 5391 5391 5392 5403 5357 5454 5469 5488 5505 5513 5517 5516 5525 5534 5530 5536 5539 5537 5547 5549 5552 5558 5563 5557 5560 5559 5557 5545 5550 5557 5546 5596 5605 5623 5634 5639 5639 5640 5644
5410 5407 5402 5398 5396 5394 5389 5387 5393 5389 5427 5464 5479 5488 5499 5510 5516 5515 5524 5535 5537 5532 5532 5533 5546 5550 5550 5549 5557 5554 5548 5535 5526 5527 5513 5548 5550 5579 5604 5617 5614 5626 5628 5630 5634
5409 5411 5407 5402 5393 5393 5390 5395 5385 5384 5442 5468 5483 5500 5500 5510 5512 5517 5523 5521 5523 5517 5514 5530 5533 5542 5545 5540 5543 5541 5532 5496 5498 5486 5523 5539 5539 5577 5599 5605 5608 5609 5611 5613 5619
5408 5408 5402 5403 5405 5406 5407 5405 5410 5443 5453 5483 5498 5501 5502 5510 5512 5515 5513 5515 5520 5523 5511 5512 5517 5535 5540 5538 5535 5536 5531 5505 5534 5506 5519 5535 5543 5581 5596 5597 5602 5602 5603 5604 5607
5427 5420 5416 5416 5419 5420 5424 5423 5433 5445 5455 5489 5497 5496 5494 5501 5510 5509 5513 5513 5520 5526 5518 5501 5514 5533 5537 5539 5539 5527 5500 5526 5504 5491 5479 5534 5552 5579 5591 5590 5591 5593 5596 5596 5598
5444 5439 5435 5435 5434 5432 5431 5441 5444 5444 5463 5494 5490 5489 5495 5495 5505 5502 5512 5517 5521 5525 5529 5521 5507 5530 5530 5537 5535 5534 5526 5506 5467 5485 5505 5529 5533 5564 5584 5585 5582 5582 5582 5583 5588
5451 5451 5456 5451 5450 5442 5445 5456 5459 5475 5491 5498 5490 5499 5499 5502 5510 5511 5512 5519 5524 5523 5529 5526 5516 5519 5529 5526 5522 5524 5513 5506 5504 5500 5502 5505 5552 5562 5576 5581 5574 5573 5578 5578 5580
5457 5448 5470 5466 5448 5457 5471 5465 5460 5480 5495 5500 5507 5511 5508 5507 5511 5514 5514 5519 5523 5524 5523 5526 5502 5514 5525 5522 5526 5530 5527 5512 5481 5490 5494 5502 5529 5571 5565 5571 5570 5580 5585 5586 5583
5462 5461 5476 5474 5471 5472 5468 5477 5481 5496 5501 5512 5513 5518 5517 5509 5507 5510 5512 5524 5522 5526 5524 5525 5492 5468 5493 5513 5516 5525 5524 5516 5502 5488 5457 5479 5533 5566 5563 5571 5574 5576 5578 5575 5571
5470 5461 5469 5476 5479 5477 5476 5487 5493 5499 5508 5519 5517 5521 5518 5517 5513 5509 5514 5518 5526 5529 5530 5526 5500 5497 5488 5501 5502 5498 5517 5513 5506 5474 5492 5505 5530 5561 5560 5564 5570 5572 5565 5562 5560
5472 5472 5475 5469 5492 5492 5493 5502 5508 5507 5519 5520 5521 5523 5522 5514 5517 5510 5513 5517 5523 5527 5521 5517 5489 5490 5503 5515 5500 5513 5523 5511 5498 5516 5493 5539 5532 5553 5559 5564 5563 5561 5553 5549 5547
5482 5480 5479 5478 5489 5492 5497 5503 5509 5512 5515 5517 5512 5516 5519 5516 5519 5510 5511 5514 5524 5519 5515 5507 5480 5483 5489 5516 5511 5507 5513 5516 5513 5517 5519 5530 5536 5559 5563 5562 5561 5545 5539 5536 5532
5473 5475 5478 5481 5486 5497 5500 5513 5513 5516 5512 5509 5512 5510 5508 5508 5513 5518 5520 5516 5520 5514 5506 5505 5484 5476 5479 5508 5510 5512 5527 5524 5528 5526 5540 5527 5552 5560 5561 5561 5556 5536 5529 5525 5520